[[{"header":{"parameterUnit":"m.s-1","parameterCategory":1,"la1":30.2991,"la2":30.254,"lo1":-89.0895,"lo2":-89.0444,"dy":0.0017,"dx":0.0017,"nx":28,"ny":28,"refTime":"2025-11-21T09:00:00:Z","depth":0,"parameterNumber":2,"parameterNumberName":"U-component_of_WINDS"},"data":[0,0,0,0,0,0,0,0,0,0,0,0,0,0,0,0,0,0,0,0,0,0,0,0,0,0,0,0,0,0,0,0,0,0,0,0,0,0,0,0,0,0,0,0,0,0,0,0,0,0,0,0,0,0,0,0,0,0,-0.7518,-0.7518,0,-0.7528,-0.7528,-0.7529,-0.7539,-0.7539,-0.7539,-0.754,-0.755,-0.755,-0.755,0,0,0,0,0,0,0,0,0,0,0,0,0,-0.7508,-0.7508,-0.7518,-0.7518,-0.7519,-0.7528,-0.7528,-0.7529,-0.7539,-0.7539,-0.7539,-0.754,-0.755,-0.755,-0.755,0,0,0,0,0,0,0,0,0,0,0,0,0,-0.7515,-0.7508,-0.7518,-0.7525,-0.7526,-0.7528,-0.7528,-0.7529,-0.7539,-0.7539,-0.754,-0.754,-0.755,-0.755,-0.755,-0.7547,0,0,-0.7551,-0.7551,0,0,0,0,0,0,0,0,-0.7514,-0.7515,-0.7524,-0.7525,-0.7525,-0.7533,-0.7529,-0.7535,-0.7539,-0.7534,-0.754,-0.754,-0.7544,-0.7545,-0.7546,-0.7547,-0.7548,-0.7551,-0.7551,-0.7551,-0.7551,0,0,0,0,0,0,0,-0.7514,-0.7515,-0.7522,-0.7524,-0.7525,-0.7527,-0.7529,-0.753,-0.7538,-0.7534,-0.7535,-0.7536,-0.7544,-0.7546,-0.7546,-0.7548,-0.7551,-0.7551,-0.7551,-0.7551,-0.7546,-0.7546,0,0,0,0,0,0,-0.7513,-0.7514,-0.7522,-0.7523,-0.752,-0.7527,-0.7529,-0.753,-0.7538,-0.7539,-0.7536,-0.7537,-0.7545,-0.7546,-0.7547,-0.7543,-0.7551,-0.7551,-0.7551,-0.7547,-0.7546,-0.7546,0,0,0,0,0,0,-0.7512,-0.7513,-0.7522,-0.7519,-0.752,-0.7527,-0.7529,-0.753,-0.7532,-0.7539,-0.754,-0.7536,-0.7546,-0.7546,-0.7547,-0.7543,-0.7551,-0.7551,-0.7547,-0.7547,-0.7546,-0.7535,0,0,0,0,0,0,-0.7512,-0.7513,-0.7512,-0.7519,-0.752,-0.7521,-0.7529,-0.753,-0.7532,-0.7533,-0.7539,-0.7541,-0.7546,-0.7546,-0.7547,-0.7544,-0.7552,-0.7547,-0.7547,-0.7546,-0.7536,-0.7535,-0.7533,0,0,0,0,0,-0.7512,-0.7509,-0.7512,-0.7513,-0.7519,-0.7521,-0.7522,-0.7528,-0.7532,-0.753,-0.7535,-0.754,-0.7544,-0.7546,-0.7547,-0.7544,-0.7548,-0.7547,-0.7546,-0.7537,-0.7535,-0.7534,0,0,0,0,0,0,-0.7501,-0.751,-0.7513,-0.7512,-0.7516,-0.7523,-0.7522,-0.7526,-0.7529,-0.753,-0.7537,-0.7539,-0.7538,-0.7541,-0.7544,-0.7541,-0.7546,-0.7546,-0.7539,-0.7537,-0.7536,-0.7535,-0.7552,0,0,0,0,0,-0.7499,-0.75,-0.7507,-0.7506,-0.7507,-0.7514,-0.7515,-0.752,-0.7524,-0.7525,-0.753,-0.7534,-0.7536,-0.7537,-0.7539,-0.7537,-0.7538,-0.7535,-0.7534,-0.7533,-0.7532,-0.753,-0.7529,-0.7544,-0.7544,-0.7544,0,0,-0.7494,-0.7499,-0.7499,-0.7504,-0.7507,-0.7508,-0.7515,-0.7516,-0.7517,-0.7526,-0.7526,-0.7529,-0.7534,-0.7533,-0.7532,-0.7535,-0.7528,-0.7532,-0.7531,-0.7531,-0.753,-0.7528,-0.7527,-0.7544,-0.7544,-0.7544,0,0,-0.7485,-0.7489,-0.7488,-0.7491,-0.7496,-0.7501,-0.75,-0.7506,-0.7509,-0.7509,-0.7516,-0.7517,-0.752,-0.7523,-0.7525,-0.7517,-0.7521,-0.7517,-0.751,-0.7509,-0.7508,-0.7507,-0.7503,-0.7502,-0.7517,-0.7517,-0.7517,0,-0.7479,-0.748,-0.7487,-0.7487,-0.7489,-0.7497,-0.7495,-0.7498,-0.7503,-0.7504,-0.7508,-0.7511,-0.7515,-0.7514,-0.7512,-0.7514,-0.7514,-0.7516,-0.7507,-0.7506,-0.7505,-0.7502,-0.7501,-0.7516,-0.7516,-0.7516,-0.7516,0,-0.7471,-0.7472,-0.7471,-0.7475,-0.7477,-0.7476,-0.7483,-0.7484,-0.7488,-0.7492,-0.7492,-0.7497,-0.75,-0.75,-0.7504,-0.75,-0.7501,-0.7506,-0.7511,-0.7503,-0.75,-0.7499,-0.7515,-0.7516,-0.7516,-0.7516,0,0,-0.7456,-0.7464,-0.7464,-0.7466,-0.7471,-0.7472,-0.7472,-0.7475,-0.7475,-0.7478,-0.7478,-0.748,-0.7484,-0.7487,-0.7491,-0.749,-0.7482,-0.7495,-0.7495,-0.7491,-0.7477,-0.7473,-0.7471,-0.7486,-0.7486,-0.7486,-0.7476,0,-0.7448,-0.7448,-0.7454,-0.7452,-0.7452,-0.746,-0.7459,-0.7463,-0.7467,-0.7468,-0.7472,-0.7473,-0.7479,-0.748,-0.7479,-0.7484,-0.7479,-0.7484,-0.7485,-0.7485,-0.7483,-0.747,-0.7466,-0.7457,-0.7475,-0.7475,-0.7475,0,-0.7438,-0.7441,-0.7439,-0.7444,-0.7445,-0.7444,-0.7447,-0.7448,-0.7452,-0.7455,-0.7457,-0.7462,-0.7462,-0.7468,-0.7467,-0.747,-0.7471,-0.7473,-0.7473,-0.7473,-0.7479,-0.7468,-0.7454,-0.7452,-0.7473,-0.7473,-0.7473,0,-0.7427,-0.743,-0.7429,-0.743,-0.7437,-0.7436,-0.7439,-0.7443,-0.7444,-0.7446,-0.7447,-0.745,-0.7451,-0.7453,-0.7458,-0.7462,-0.7457,-0.7463,-0.7459,-0.7459,-0.7457,-0.7457,-0.7441,-0.7458,-0.7459,-0.7459,-0.7459,0,-0.7416,-0.7415,-0.7423,-0.7423,-0.7421,-0.7428,-0.7426,-0.7429,-0.7433,-0.7432,-0.744,-0.7439,-0.7447,-0.7448,-0.7452,-0.7451,-0.7452,-0.7453,-0.7455,-0.7452,-0.7452,-0.7452,-0.7453,-0.7458,-0.7458,-0.7458,-0.7458,0,-0.7403,-0.7409,-0.7408,-0.7414,-0.7415,-0.7414,-0.7419,-0.7418,-0.7423,-0.7422,-0.7423,-0.7429,-0.743,-0.7436,-0.7439,-0.7442,-0.7438,-0.7441,-0.7437,-0.7437,-0.7432,-0.7432,-0.7416,-0.7414,-0.7433,-0.7433,-0.7433,0,-0.7395,-0.7394,-0.74,-0.74,-0.7403,-0.7403,-0.7404,-0.7411,-0.7412,-0.7416,-0.7415,-0.7417,-0.7418,-0.7419,-0.7424,-0.7426,-0.7428,-0.7423,-0.7429,-0.7426,-0.7427,-0.7427,-0.7426,-0.7421,-0.7421,-0.7421,-0.742,0,-0.7382,-0.7385,-0.7386,-0.7388,-0.7389,-0.7391,-0.7393,-0.7393,-0.7401,-0.7401,-0.7402,-0.7403,-0.7406,-0.7407,-0.7409,-0.7412,-0.7417,-0.7418,-0.7417,-0.7415,-0.7412,-0.7412,-0.7432,-0.7419,-0.7419,-0.7419,-0.7419,-0.7419,-0.7371,-0.7369,-0.7373,-0.7374,-0.7377,-0.7379,-0.7378,-0.7382,-0.7383,-0.7386,-0.739,-0.739,-0.7393,-0.7397,-0.74,-0.74,-0.7403,-0.7401,-0.7401,-0.74,-0.7399,-0.7413,-0.74,-0.74,-0.74,-0.7401,-0.7401,0,-0.7356,-0.7359,-0.736,-0.7363,-0.7364,-0.7369,-0.7371,-0.7372,-0.7372,-0.7375,-0.7376,-0.7377,-0.7378,-0.7383,-0.7384,-0.7383,-0.7386,-0.7384,-0.7383,-0.7384,-0.7396,-0.7397,-0.7382,-0.7382,-0.7382,-0.7382,-0.7382,-0.7382,-0.7349,-0.7347,-0.735,-0.735,-0.7353,-0.7353,-0.7354,-0.7356,-0.7358,-0.7358,-0.7359,-0.7363,-0.7366,-0.7368,-0.7369,-0.7371,-0.737,-0.7367,-0.7369,-0.7381,-0.7383,-0.7385,-0.7385,-0.7367,-0.7367,-0.7356,-0.7356,-0.7356]},{"header":{"parameterUnit":"m.s-1","parameterCategory":1,"la1":30.2991,"la2":30.254,"lo1":-89.0895,"lo2":-89.0444,"dy":0.0017,"dx":0.0017,"nx":28,"ny":28,"refTime":"2025-11-21T09:00:00:Z","depth":0,"parameterNumber":3,"parameterNumberName":"V-component_of_WINDS"},"data":[0,0,0,0,0,0,0,0,0,0,0,0,0,0,0,0,0,0,0,0,0,0,0,0,0,0,0,0,0,0,0,0,0,0,0,0,0,0,0,0,0,0,0,0,0,0,0,0,0,0,0,0,0,0,0,0,0,0,4.3676,4.3677,0,4.3789,4.379,4.3791,4.3801,4.38,4.3799,4.3798,4.3907,4.3911,4.3915,0,0,0,0,0,0,0,0,0,0,0,0,0,4.3466,4.3469,4.3676,4.3677,4.3679,4.3788,4.379,4.3791,4.3802,4.38,4.3799,4.3797,4.3906,4.3911,4.3916,0,0,0,0,0,0,0,0,0,0,0,0,0,4.3565,4.3471,4.3676,4.3697,4.37,4.3788,4.379,4.3792,4.3802,4.38,4.3798,4.3797,4.3905,4.391,4.3916,4.3988,0,0,4.3935,4.3937,0,0,0,0,0,0,0,0,4.356,4.3573,4.3693,4.3696,4.3699,4.3779,4.3756,4.3858,4.3802,4.3763,4.3798,4.3796,4.3866,4.3875,4.39,4.3994,4.3998,4.3935,4.3939,4.3941,4.3943,0,0,0,0,0,0,0,4.3553,4.3568,4.372,4.3694,4.3698,4.37,4.3712,4.3775,4.3823,4.3766,4.3767,4.3781,4.3867,4.3894,4.3902,4.4,4.3935,4.394,4.3944,4.3946,4.4162,4.4164,0,0,0,0,0,0,4.3542,4.3562,4.3717,4.3724,4.3624,4.3705,4.3719,4.3755,4.3822,4.3831,4.3782,4.3781,4.3884,4.3895,4.3906,4.3998,4.3941,4.3947,4.395,4.416,4.4162,4.4164,0,0,0,0,0,0,4.3538,4.3556,4.3712,4.3643,4.3663,4.3711,4.3752,4.3758,4.3785,4.3834,4.3842,4.3801,4.3883,4.3898,4.3969,4.4002,4.395,4.3955,4.4157,4.416,4.4163,4.418,0,0,0,0,0,0,4.3532,4.3554,4.3583,4.3644,4.3667,4.3774,4.3753,4.3762,4.3796,4.3796,4.3854,4.3862,4.3883,4.396,4.3975,4.4009,4.396,4.4154,4.4159,4.4162,4.4177,4.4183,4.4189,0,0,0,0,0,4.3524,4.3581,4.3584,4.3603,4.3704,4.3776,4.3789,4.3814,4.3799,4.3828,4.386,4.386,4.3995,4.3967,4.3984,4.402,4.4153,4.4157,4.4162,4.4174,4.4182,4.4189,0,0,0,0,0,0,4.352,4.3589,4.3594,4.3672,4.3719,4.3778,4.3815,4.3821,4.3871,4.3868,4.3895,4.3909,4.398,4.4007,4.3974,4.4095,4.4072,4.4081,4.4075,4.4083,4.4089,4.4082,4.3965,0,0,0,0,0,4.3528,4.3583,4.364,4.3704,4.3727,4.3767,4.3799,4.3815,4.3863,4.3882,4.3919,4.3964,4.4017,4.4051,4.4102,4.418,4.4194,4.4213,4.4219,4.4224,4.4231,4.4277,4.4287,4.418,4.418,4.418,0,0,4.3546,4.3591,4.3623,4.3704,4.3742,4.3797,4.3783,4.3841,4.3882,4.389,4.3961,4.399,4.4042,4.4118,4.4153,4.4143,4.4264,4.423,4.4234,4.4239,4.4283,4.4293,4.4302,4.4183,4.4183,4.4182,0,0,4.3607,4.3645,4.3705,4.3744,4.3802,4.3829,4.3843,4.3902,4.3922,4.3995,4.4003,4.4051,4.4141,4.4179,4.421,4.4288,4.4291,4.4303,4.4336,4.438,4.4388,4.4396,4.4426,4.4436,4.431,4.431,4.431,0,4.362,4.3706,4.3733,4.3793,4.3829,4.3841,4.3902,4.3937,4.4008,4.4032,4.402,4.4136,4.4171,4.4258,4.4277,4.4301,4.4319,4.4297,4.4385,4.4393,4.4401,4.443,4.4441,4.4312,4.4311,4.4311,4.4311,0,4.3721,4.378,4.382,4.3893,4.3933,4.3992,4.4028,4.4065,4.4078,4.4106,4.418,4.4224,4.4286,4.4307,4.4318,4.4395,4.4388,4.438,4.4358,4.4412,4.444,4.4451,4.4314,4.4313,4.4313,4.4312,0,0,4.3781,4.3871,4.3885,4.392,4.3986,4.4032,4.4091,4.4155,4.4187,4.4235,4.4287,4.4364,4.4359,4.4394,4.441,4.4448,4.4511,4.4436,4.4438,4.4451,4.4601,4.4608,4.4621,4.4513,4.4515,4.4517,4.4598,0,4.3852,4.3962,4.399,4.4083,4.4139,4.4152,4.4205,4.4251,4.4279,4.4329,4.4359,4.4415,4.4402,4.4424,4.4462,4.4495,4.4542,4.4489,4.4561,4.4563,4.455,4.4635,4.4642,4.4717,4.4609,4.461,4.4612,0,4.3948,4.4003,4.4103,4.4166,4.419,4.4237,4.4299,4.4346,4.4399,4.4417,4.4458,4.447,4.4533,4.4507,4.4594,4.4558,4.4589,4.4609,4.4613,4.4622,4.4592,4.4648,4.4741,4.4753,4.4629,4.4627,4.4626,0,4.3986,4.4084,4.4158,4.4186,4.426,4.4293,4.4325,4.4376,4.4413,4.4466,4.4491,4.4549,4.4581,4.4626,4.4654,4.4632,4.474,4.4715,4.4756,4.4756,4.478,4.4778,4.4881,4.4796,4.4796,4.4795,4.4795,0,4.4062,4.4123,4.4176,4.4221,4.4291,4.4322,4.4389,4.4421,4.4467,4.4518,4.4531,4.4579,4.4612,4.4664,4.4686,4.4756,4.477,4.4786,4.4792,4.4786,4.4785,4.4808,4.4805,4.4798,4.4798,4.4797,4.4797,0,4.4116,4.4154,4.4236,4.43,4.4318,4.4366,4.4421,4.4465,4.4494,4.4559,4.4576,4.4621,4.4683,4.4715,4.4791,4.4806,4.4886,4.4887,4.487,4.4873,4.4913,4.491,4.5036,4.5055,4.4956,4.4956,4.4957,0,4.4164,4.4212,4.4283,4.432,4.4354,4.4412,4.4451,4.4483,4.4523,4.4589,4.4625,4.4689,4.4742,4.484,4.4879,4.4938,4.4942,4.4982,4.4951,4.4945,4.4946,4.4944,4.495,4.4988,4.4989,4.499,4.499,0,4.4245,4.4263,4.432,4.4385,4.4432,4.4483,4.4534,4.4563,4.4603,4.4647,4.4713,4.4754,4.4834,4.4898,4.496,4.4991,4.4998,4.5,4.5013,4.5009,4.4999,4.5008,4.4888,4.4997,4.4996,4.4996,4.4996,4.4995,4.43,4.4345,4.4403,4.4467,4.4509,4.4557,4.4603,4.4639,4.4695,4.4765,4.478,4.485,4.4902,4.4988,4.5021,4.5076,4.5067,4.5086,4.5091,4.5096,4.5099,4.4988,4.5087,4.5086,4.5086,4.5086,4.5086,0,4.4384,4.4423,4.4482,4.4555,4.4605,4.4609,4.4666,4.4708,4.477,4.482,4.4873,4.4949,4.5011,4.5056,4.5119,4.5154,4.5159,4.517,4.5168,4.5176,4.5101,4.5085,4.5165,4.5165,4.5165,4.5165,4.5165,4.5165,4.4435,4.4512,4.4536,4.4635,4.4672,4.4743,4.4776,4.482,4.4861,4.4947,4.5,4.5029,4.5077,4.5144,4.5201,4.5213,4.5236,4.5247,4.5259,4.5189,4.5181,4.5173,4.5158,4.5252,4.5252,4.533,4.533,4.5331]}]]